Schneifelwetter: Wetterstation Hallschlag, 537 m . NN
Wetterdaten: Montag, 07.11.2011
Datum Zeit Temp. A. Feuchte A. Luftdruck Regen Wind Richtung Richtung Sonnenschein Helligkeit T Regen Taupunkt Windchill
07.11.2011 00:09 5,8 C 99 % 1015 hPa 0,0 l/m 16,0 km/h (3 Bft) N-NO67.5 20 0 min 0 lux 0 min 5,7 C -0,4 C
07.11.2011 00:24 5,8 C 99 % 1015 hPa 0,0 l/m 16,5 km/h (3 Bft) N-NO22.5 30 0 min 0 lux 0 min 5,7 C -0,7 C
07.11.2011 00:39 5,9 C 99 % 1015 hPa 0,0 l/m 22,0 km/h (4 Bft) N-NO45 25 0 min 0 lux 0 min 5,8 C -2,7 C
07.11.2011 00:54 5,9 C 99 % 1015 hPa 0,0 l/m 24,8 km/h (4 Bft) N-NO22.5 25 0 min 0 lux 0 min 5,8 C -3,7 C
07.11.2011 01:09 5,9 C 99 % 1015 hPa 0,0 l/m 18,0 km/h (3 Bft) N-NO22.5 15 0 min 0 lux 0 min 5,8 C -1,2 C
07.11.2011 01:24 5,9 C 99 % 1015 hPa 0,0 l/m 16,3 km/h (3 Bft) N-NO22.5 15 0 min 0 lux 0 min 5,8 C -0,5 C
07.11.2011 01:39 5,9 C 99 % 1015 hPa 0,0 l/m 12,3 km/h (3 Bft) N67.5 355 0 min 0 lux 0 min 5,8 C 1,6 C
07.11.2011 01:54 6,0 C 99 % 1015 hPa 0,0 l/m 14,6 km/h (3 Bft) N45 5 0 min 0 lux 0 min 5,9 C 0,5 C
07.11.2011 02:09 6,0 C 99 % 1015 hPa 0,0 l/m 14,8 km/h (3 Bft) N-NO22.5 20 0 min 0 lux 0 min 5,9 C 0,4 C
07.11.2011 02:24 5,8 C 99 % 1015 hPa 0,0 l/m 16,5 km/h (3 Bft) N-NO67.5 30 0 min 0 lux 0 min 5,7 C -0,7 C
07.11.2011 02:39 5,5 C 99 % 1015 hPa 0,0 l/m 23,4 km/h (4 Bft) N-NO45 20 0 min 0 lux 0 min 5,4 C -3,8 C
07.11.2011 02:54 5,4 C 99 % 1015 hPa 0,0 l/m 24,8 km/h (4 Bft) N-NO45 15 0 min 0 lux 0 min 5,3 C -4,3 C
07.11.2011 03:09 5,3 C 99 % 1015 hPa 0,0 l/m 29,1 km/h (5 Bft) NO45 35 0 min 0 lux 0 min 5,2 C -5,7 C
07.11.2011 03:24 5,2 C 99 % 1015 hPa 0,0 l/m 27,5 km/h (4 Bft) N-NO45 25 0 min 0 lux 0 min 5,1 C -5,4 C
07.11.2011 03:39 5,2 C 99 % 1015 hPa 0,0 l/m 21,6 km/h (4 Bft) N-NO67.5 20 0 min 0 lux 0 min 5,1 C -3,5 C
07.11.2011 03:54 5,2 C 99 % 1015 hPa 0,0 l/m 21,8 km/h (4 Bft) N-NO22.5 25 0 min 0 lux 0 min 5,1 C -3,6 C
07.11.2011 04:09 5,2 C 99 % 1015 hPa 0,0 l/m 18,3 km/h (3 Bft) N-NO22.5 25 0 min 0 lux 0 min 5,1 C -2,2 C
07.11.2011 04:24 5,2 C 99 % 1015 hPa 0,0 l/m 20,0 km/h (4 Bft) NO22.5 35 0 min 0 lux 0 min 5,1 C -2,9 C
07.11.2011 04:39 5,2 C 99 % 1014 hPa 0,0 l/m 25,9 km/h (4 Bft) N-NO22.5 20 0 min 0 lux 0 min 5,1 C -5,0 C
07.11.2011 04:54 5,3 C 99 % 1014 hPa 0,0 l/m 25,1 km/h (4 Bft) N22.5 10 0 min 0 lux 0 min 5,2 C -4,6 C
07.11.2011 05:09 5,3 C 99 % 1014 hPa 0,0 l/m 22,5 km/h (4 Bft) N45 5 0 min 0 lux 0 min 5,2 C -3,7 C
07.11.2011 05:24 5,2 C 99 % 1015 hPa 0,0 l/m 20,9 km/h (4 Bft) N-NO22.5 30 0 min 0 lux 0 min 5,1 C -3,3 C
07.11.2011 05:39 4,9 C 99 % 1015 hPa 0,0 l/m 26,6 km/h (4 Bft) N-NO22.5 25 0 min 0 lux 0 min 4,8 C -5,6 C
07.11.2011 05:54 4,7 C 99 % 1015 hPa 0,0 l/m 25,3 km/h (4 Bft) N-NO22.5 20 0 min 0 lux 0 min 4,6 C -5,4 C
07.11.2011 06:09 4,7 C 99 % 1015 hPa 0,0 l/m 30,5 km/h (5 Bft) N-NO22.5 30 0 min 0 lux 0 min 4,6 C -6,9 C
07.11.2011 06:24 4,5 C 99 % 1015 hPa 0,0 l/m 28,6 km/h (4 Bft) N-NO22.5 20 0 min 0 lux 0 min 4,4 C -6,7 C
07.11.2011 06:39 4,6 C 99 % 1015 hPa 0,0 l/m 24,8 km/h (4 Bft) N-NO45 25 0 min 0 lux 0 min 4,5 C -5,4 C
07.11.2011 06:54 4,5 C 99 % 1015 hPa 0,0 l/m 24,8 km/h (4 Bft) N-NO22.5 25 0 min 0 lux 0 min 4,4 C -5,6 C
07.11.2011 07:09 4,4 C 99 % 1015 hPa 0,0 l/m 24,5 km/h (4 Bft) N-NO 25 0 min 0 lux 0 min 4,3 C -5,6 C
07.11.2011 07:30 4,4 C 99 % 1015 hPa 0,0 l/m 19,5 km/h (3 Bft) N-NO22.5 25 0 min 159 lux 0 min 4,3 C -3,7 C
07.11.2011 07:45 4,4 C 99 % 1015 hPa 0,0 l/m 21,1 km/h (4 Bft) N-NO22.5 25 0 min 370 lux 0 min 4,3 C -4,4 C
07.11.2011 08:00 4,4 C 99 % 1015 hPa 0,0 l/m 21,7 km/h (4 Bft) N-NO22.5 25 0 min 724 lux 0 min 4,3 C -4,6 C
07.11.2011 08:15 4,5 C 99 % 1015 hPa 0,0 l/m 19,8 km/h (3 Bft) N-NO22.5 30 0 min 1,32 klux 0 min 4,4 C -3,7 C
07.11.2011 08:30 4,5 C 99 % 1015 hPa 0,0 l/m 23,6 km/h (4 Bft) N-NO22.5 25 0 min 2,67 klux 0 min 4,4 C -5,2 C
07.11.2011 08:45 4,6 C 99 % 1015 hPa 0,0 l/m 19,1 km/h (3 Bft) N-NO22.5 25 0 min 3,95 klux 0 min 4,5 C -3,3 C
07.11.2011 09:00 4,7 C 99 % 1015 hPa 0,0 l/m 18,5 km/h (3 Bft) N-NO22.5 30 0 min 4,39 klux 0 min 4,6 C -2,9 C
07.11.2011 09:15 4,7 C 99 % 1015 hPa 0,0 l/m 17,4 km/h (3 Bft) N-NO22.5 30 0 min 4,90 klux 0 min 4,6 C -2,5 C
07.11.2011 09:30 4,9 C 99 % 1015 hPa 0,0 l/m 18,0 km/h (3 Bft) N-NO22.5 30 0 min 6,23 klux 0 min 4,8 C -2,5 C
07.11.2011 09:45 4,9 C 99 % 1015 hPa 0,0 l/m 21,2 km/h (4 Bft) NO22.5 35 0 min 7,79 klux 0 min 4,8 C -3,8 C
07.11.2011 10:00 4,9 C 99 % 1015 hPa 0,0 l/m 16,3 km/h (3 Bft) N-NO22.5 25 0 min 7,03 klux 0 min 4,8 C -1,7 C
07.11.2011 10:15 5,2 C 99 % 1015 hPa 0,0 l/m 15,3 km/h (3 Bft) N-NO22.5 20 0 min 7,97 klux 0 min 5,1 C -0,8 C
07.11.2011 10:30 5,2 C 99 % 1015 hPa 0,0 l/m 18,7 km/h (3 Bft) NO22.5 50 0 min 7,48 klux 0 min 5,1 C -2,4 C
07.11.2011 10:45 5,2 C 99 % 1015 hPa 0,0 l/m 24,5 km/h (4 Bft) NO22.5 35 0 min 8,19 klux 0 min 5,1 C -4,5 C
07.11.2011 11:00 5,2 C 99 % 1015 hPa 0,0 l/m 23,6 km/h (4 Bft) N-NO22.5 25 0 min 10,4 klux 0 min 5,1 C -4,2 C
07.11.2011 11:15 5,2 C 99 % 1015 hPa 0,0 l/m 21,7 km/h (4 Bft) N-NO22.5 25 0 min 8,90 klux 0 min 5,1 C -3,6 C
07.11.2011 11:30 5,4 C 99 % 1015 hPa 0,0 l/m 19,8 km/h (3 Bft) N-NO22.5 25 0 min 9,5 klux 0 min 5,3 C -2,6 C
07.11.2011 11:45 5,5 C 99 % 1015 hPa 0,0 l/m 18,8 km/h (3 Bft) NO22.5 35 0 min 10,0 klux 0 min 5,4 C -2,0 C
07.11.2011 12:00 5,7 C 99 % 1015 hPa 0,0 l/m 18,2 km/h (3 Bft) NO45 55 0 min 9,3 klux 0 min 5,6 C -1,5 C
07.11.2011 12:15 5,9 C 99 % 1015 hPa 0,0 l/m 19,3 km/h (3 Bft) NO45 45 0 min 10,0 klux 0 min 5,8 C -1,7 C
07.11.2011 12:30 6,1 C 99 % 1015 hPa 0,0 l/m 20,6 km/h (4 Bft) N-NO67.5 30 0 min 8,30 klux 0 min 6,0 C -2,0 C
07.11.2011 12:45 5,9 C 99 % 1015 hPa 0,0 l/m 22,0 km/h (4 Bft) N-NO22.5 25 0 min 9,7 klux 0 min 5,8 C -2,7 C
07.11.2011 13:00 6,0 C 99 % 1015 hPa 0,0 l/m 20,1 km/h (4 Bft) N-NO45 30 0 min 10,8 klux 0 min 5,9 C -1,9 C
07.11.2011 13:15 5,8 C 99 % 1015 hPa 0,0 l/m 20,5 km/h (4 Bft) N-NO22.5 25 0 min 5,07 klux 0 min 5,7 C -2,3 C
07.11.2011 13:30 5,6 C 99 % 1014 hPa 0,0 l/m 18,6 km/h (3 Bft) N-NO22.5 25 0 min 4,56 klux 0 min 5,5 C -1,8 C
07.11.2011 13:45 5,6 C 99 % 1014 hPa 0,0 l/m 17,9 km/h (3 Bft) N-NO22.5 30 0 min 6,60 klux 0 min 5,5 C -1,5 C
07.11.2011 14:00 5,6 C 99 % 1014 hPa 0,0 l/m 20,0 km/h (4 Bft) NO22.5 35 0 min 5,99 klux 0 min 5,5 C -2,4 C
07.11.2011 14:15 5,7 C 99 % 1014 hPa 0,0 l/m 15,1 km/h (3 Bft) NO22.5 40 0 min 6,12 klux 0 min 5,6 C -0,1 C
07.11.2011 14:30 5,7 C 99 % 1014 hPa 0,0 l/m 20,3 km/h (4 Bft) NO22.5 45 0 min 6,71 klux 0 min 5,6 C -2,4 C
07.11.2011 14:45 5,9 C 99 % 1014 hPa 0,0 l/m 15,1 km/h (3 Bft) NO67.5 35 0 min 6,37 klux 0 min 5,8 C 0,1 C
07.11.2011 15:00 5,7 C 99 % 1014 hPa 0,0 l/m 21,6 km/h (4 Bft) N-NO22.5 25 0 min 6,60 klux 0 min 5,6 C -2,9 C
07.11.2011 15:15 5,8 C 99 % 1014 hPa 0,0 l/m 21,5 km/h (4 Bft) N-NO22.5 30 0 min 6,16 klux 0 min 5,7 C -2,7 C
07.11.2011 15:30 5,7 C 99 % 1014 hPa 0,0 l/m 20,2 km/h (4 Bft) N-NO22.5 30 0 min 3,66 klux 0 min 5,6 C -2,3 C
07.11.2011 15:45 5,7 C 99 % 1014 hPa 0,0 l/m 15,6 km/h (3 Bft) NO22.5 35 0 min 2,04 klux 0 min 5,6 C -0,4 C
07.11.2011 16:00 5,6 C 99 % 1014 hPa 0,0 l/m 15,1 km/h (3 Bft) O-NO45 60 0 min 1,86 klux 0 min 5,5 C -0,2 C
07.11.2011 16:15 5,6 C 99 % 1014 hPa 0,0 l/m 16,9 km/h (3 Bft) NO45 50 0 min 1,20 klux 0 min 5,5 C -1,1 C
07.11.2011 16:30 5,6 C 99 % 1014 hPa 0,0 l/m 13,0 km/h (3 Bft) NO22.5 40 0 min 975 lux 0 min 5,5 C 0,9 C
07.11.2011 16:45 5,6 C 99 % 1014 hPa 0,0 l/m 13,9 km/h (3 Bft) O-NO22.5 60 0 min 583 lux 0 min 5,5 C 0,4 C
07.11.2011 17:00 5,6 C 99 % 1014 hPa 0,0 l/m 13,6 km/h (3 Bft) O-NO45 65 0 min 255 lux 0 min 5,5 C 0,5 C
07.11.2011 17:15 5,6 C 99 % 1014 hPa 0,0 l/m 14,3 km/h (3 Bft) NO22.5 50 0 min 104 lux 0 min 5,5 C 0,2 C
07.11.2011 17:30 5,5 C 99 % 1014 hPa 0,0 l/m 12,1 km/h (2 Bft) O-NO45 60 0 min 21 lux 0 min 5,4 C 1,3 C
07.11.2011 17:45 5,5 C 99 % 1014 hPa 0,0 l/m 14,8 km/h (3 Bft) O-NO22.5 60 0 min 0 lux 0 min 5,4 C -0,2 C
07.11.2011 18:00 5,5 C 99 % 1014 hPa 0,0 l/m 15,6 km/h (3 Bft) O45 80 0 min 0 lux 0 min 5,4 C -0,6 C
07.11.2011 18:15 5,5 C 99 % 1014 hPa 0,0 l/m 14,5 km/h (3 Bft) O45 85 0 min 0 lux 0 min 5,4 C -0,1 C
07.11.2011 18:30 5,5 C 99 % 1014 hPa 0,0 l/m 18,3 km/h (3 Bft) O-NO45 65 0 min 0 lux 0 min 5,4 C -1,8 C
07.11.2011 18:45 5,6 C 99 % 1014 hPa 0,0 l/m 14,5 km/h (3 Bft) O-NO45 75 0 min 0 lux 0 min 5,5 C 0,1 C
07.11.2011 19:00 5,6 C 99 % 1014 hPa 0,0 l/m 12,3 km/h (3 Bft) O-SO45 105 0 min 0 lux 0 min 5,5 C 1,3 C
07.11.2011 19:15 5,7 C 99 % 1014 hPa 0,0 l/m 10,1 km/h (2 Bft) O45 90 0 min 0 lux 0 min 5,6 C 2,8 C
07.11.2011 19:30 5,8 C 99 % 1014 hPa 0,0 l/m 10,7 km/h (2 Bft) O45 85 0 min 0 lux 0 min 5,7 C 2,5 C
07.11.2011 19:45 5,9 C 99 % 1014 hPa 0,0 l/m 10,3 km/h (2 Bft) NO22.5 45 0 min 0 lux 0 min 5,8 C 2,9 C
07.11.2011 20:00 6,0 C 99 % 1015 hPa 0,0 l/m 9,0 km/h (2 Bft) O-NO22.5 65 0 min 0 lux 0 min 5,9 C 3,9 C
07.11.2011 20:15 6,0 C 99 % 1015 hPa 0,0 l/m 8,9 km/h (2 Bft) O-NO22.5 75 0 min 0 lux 0 min 5,9 C 4,0 C
07.11.2011 20:30 6,1 C 99 % 1015 hPa 0,0 l/m 7,8 km/h (2 Bft) O-NO22.5 65 0 min 0 lux 0 min 6,0 C 4,9 C
07.11.2011 20:45 6,1 C 99 % 1015 hPa 0,0 l/m 5,2 km/h (1 Bft) O22.5 90 0 min 0 lux 0 min 6,0 C 6,1 C
07.11.2011 21:00 6,2 C 99 % 1015 hPa 0,0 l/m 6,8 km/h (2 Bft) NO22.5 55 0 min 0 lux 0 min 6,1 C 5,9 C
07.11.2011 21:15 6,2 C 99 % 1015 hPa 0,0 l/m 9,3 km/h (2 Bft) O-NO22.5 70 0 min 0 lux 0 min 6,1 C 3,9 C
07.11.2011 21:30 6,3 C 99 % 1015 hPa 0,0 l/m 8,2 km/h (2 Bft) O45 90 0 min 0 lux 0 min 6,2 C 4,8 C
07.11.2011 21:45 6,3 C 99 % 1014 hPa 0,0 l/m 9,1 km/h (2 Bft) NO22.5 40 0 min 0 lux 0 min 6,2 C 4,1 C
07.11.2011 22:00 6,3 C 99 % 1014 hPa 0,0 l/m 4,9 km/h (1 Bft) NO 35 0 min 0 lux 0 min 6,2 C 6,3 C
07.11.2011 22:15 6,3 C 99 % 1014 hPa 0,0 l/m 13,5 km/h (3 Bft) O-NO22.5 65 0 min 0 lux 0 min 6,2 C 1,4 C
07.11.2011 22:30 6,3 C 99 % 1014 hPa 0,0 l/m 15,7 km/h (3 Bft) O-NO22.5 65 0 min 0 lux 0 min 6,2 C 0,3 C
07.11.2011 22:45 6,4 C 99 % 1014 hPa 0,0 l/m 9,8 km/h (2 Bft) O-NO22.5 70 0 min 0 lux 0 min 6,3 C 3,8 C
07.11.2011 23:00 6,4 C 99 % 1014 hPa 0,0 l/m 12,7 km/h (3 Bft) O-NO22.5 65 0 min 0 lux 0 min 6,3 C 2,0 C
07.11.2011 23:15 6,4 C 99 % 1014 hPa 0,0 l/m 12,6 km/h (3 Bft) O-NO22.5 65 0 min 0 lux 0 min 6,3 C 2,0 C
07.11.2011 23:30 6,4 C 99 % 1014 hPa 0,0 l/m 11,0 km/h (2 Bft) O-NO22.5 65 0 min 0 lux 0 min 6,3 C 3,0 C
07.11.2011 23:39 6,3 C 99 % 1014 hPa 0,0 l/m 14,8 km/h (3 Bft) O45 80 0 min 0 lux 0 min 6,2 C 0,7 C
07.11.2011 23:54 6,3 C 99 % 1014 hPa 0,0 l/m 14,0 km/h (3 Bft) O-NO45 75 0 min 0 lux 0 min 6,2 C 1,2 C
_ Min-Zeit 07:09 00:09 04:39 - 22:00 - - - - - 07:09 06:09
Minimum _ 4,4 C 99 % 1014 hPa - 4,9 km/h (1 Bft) - - - - - 4,3 C -6,9 C
_ Max-Zeit 22:45 00:09 00:09 00:09 06:09 - - 00:09 13:00 00:09 22:45 22:00
Maximum _ 6,4 C 99 % 1015 hPa 0,0 l/m 30,5 km/h
N-NO (5 Bft)
- - 0 min 10,8 klux 0 min 6,3 C 6,3 C
Durchschnitt _ 5,5 C 99 % 1015 hPa #0,0 l/m 17,7 km/h (3 Bft) N-NO - #0 min. 2,25 klux #0 min. 5,4 C -1,2 C